Location: Newark
(54.4000°N, 32.4500°E)
Time: 05:56:19
(UTC+00:00)

Envisat - Pass Details

Date: 26 January 2020
Orbit: 764 x 766 km, 98.1° (Epoch: 27 February)

Event Time Altitude Azimuth Distance (km) Brightness Sun altitude
Rises 03:51:23 0° 20° (NNE) 3,248 6.4 -16.8°
Reaches altitude 10° 03:53:57 10° 30° (NNE) 2,316 5.7 -16.5°
Maximum altitude 03:58:31 32° 94° (E) 1,290 4.9 -15.8°
Drops below altitude 10° 04:03:03 10° 157° (SSE) 2,300 5.9 -15.2°
Sets 04:05:34 0° 168° (SSE) 3,221 6.6 -14.8°
